Regional Weather Roundup
Issued by NWS

Home | Current Version | Previous Version | Graphics & Text | Print | Product List | Glossary On
Versions: 1 2 3 4 5 6 7 8 9 10 11 12 13 14 15 16 17 18 19 20 21 22 23 24 25 26 27 28 29 30 31 32 33 34 35 36 37 38 39 40 41 42 43 44 45 46 47 48 49 50
000
ASUS43 KBIS 250902
RWRND

NORTH DAKOTA REGIONAL WEATHER ROUNDUP
NATIONAL WEATHER SERVICE BISMARCK ND
400 AM CDT SAT MAR 25 2017

NOTE: "FAIR" INDICATES FEW OR NO CLOUDS BELOW 12,000 FEET WITH NO
SIGNIFICANT WEATHER AND/OR OBSTRUCTIONS TO VISIBILITY.


NDZ001>003-009>011-017-251000-
NORTHWEST NORTH DAKOTA

CITY           SKY/WX    TMP DP  RH WIND       PRES   REMARKS
WILLISTON      FAIR      43  32  65 SE8G20    29.86F
MINOT          CLOUDY    32  30  92 SE12      30.02F
MINOT AFB      CLOUDY    31  30  97 SE16      30.02F WCI  20
$$

NDZ018>021-031>035-040>046-251000-
SOUTHWEST NORTH DAKOTA

CITY           SKY/WX    TMP DP  RH WIND       PRES   REMARKS
BISMARCK       CLOUDY    31  29  92 SE8       30.10F
DICKINSON      FAIR      34  30  85 SE20      29.91F
GARRISON         N/A     30  29  96 SE17      30.02F WCI  18
HETTINGER ARPT CLOUDY    34  30  85 SE13      29.97F
$$

NDZ004>008-012>016-024-026-027-054-251000-
NORTHEAST NORTH DAKOTA

CITY           SKY/WX    TMP DP  RH WIND       PRES   REMARKS
GRAND FORKS    CLEAR     27  26  96 CALM      30.18F
GRND FRKS AFB  CLEAR     25  25  99 CALM      30.18F FOG
DEVILS LAKE    CLOUDY    28  26  92 S8        30.15F WCI  20
$$

NDZ022-023-025-028>030-036>039-047>053-251000-
SOUTHEAST NORTH DAKOTA

CITY           SKY/WX    TMP DP  RH WIND       PRES   REMARKS
FARGO          CLEAR     28  26  92 E5        30.18F
JAMESTOWN      FAIR      26  25  96 CALM      30.13F
$$





USA.gov is the U.S. government's official web portal to all federal, state and local government web resources and services.